CZ-4B DEB, 49046

Orbit data source: Space-Track

CZ-4B DEB, 49046 is space debris in SSO originally from a launch on Sun, 27 Sep 2020 UTC launched from the Taiyaun Space Center, China (TSC). Debris objects in space refer to the collection of defunct objects orbiting the Earth. Examples of debris include non-operational satellites, rocket bodies, and fragments generated from explosions, collisions, or faulty payload assembly.

Loading next visibility...
Identifier
49046, 2020-067H
Orbit
SSO
Country
Flag of CNCN / PRC
Related business
Manufacturer
SAST
Mission
Spacecraft
Bus & Motor
Unknown
Mass
Unknown
Launch date (UTC)
2020-09-27 (5 years ago)
Launch vehicle
Unknown
Launch site
Taiyaun Space Center, China (TSC)
Object type
Payload
Rocket body
Debris
Shape & HBR
Unknown shape, 0.1 m
Radar Cross Section
Small (<0.1 m²)

Expand to show TLE details & history
Last TLE update: 1 day ago

TLE from 1 day ago
0 CZ-4B DEB
1 49046U 20067H   25307.07116628  .00002557  00000-0  37614-3 0  9999
2 49046  97.7697 347.9182 0028783 309.6860  50.1812 14.75991902250511
Epoch: 2025-11-03T01:42Z
TLE epoch observation values (Epoch: 2025-11-03T01:42:28.766Z)
Latitude
-0.00006°
Longitude
-80.27946°
Altitude
632.117 km
Speed
7.549 km/s
True Right ascension
23h 11m 40s
True Declination
0° 00' 00"
Sunlit
Object was in full shadow at epoch
Visualization orbit readout
Latitude
Unknown
Longitude
Unknown
Altitude
Unknown
Speed
Unknown
Apparent Right ascension
Unknown
Apparent Declination
Unknown
Sunlit
N/A
Visualization observer readout
Local Sidereal Time
01:37:05
Azimuth
Unknown
Elevation
Unknown
Doppler factor
Unknown
Orbital elements
Apogee altitude
659.242 km
Perigee altitude
618.847 km
Semi-major axis
7,017.182 km
Eccentricity
0.00288
Inclination
97.7697°
RAAN
347.9182°
Arg. of periapsis
309.686°
True anomaly
50.43512°
Mean anomaly
50.1812°
Eccentric anomaly
50.3081°
Mean motion
3.69232 °/min
Orbital period
97.5 mins
BSTAR
0.00037614
Loading maneuver chart data...
Computing Atmospheric mass density...
Loading historical data...
Loading historical data...
Loading historical data...
Loading historical data...
Loading historical data...
Loading historical data...
Loading historical data...

Documentation

Showing up to 5 results
|